Location: Camp Crooked Creek
(37.9149°N, 85.6607°W)
Time: 03:48:11
(UTC-04:00)

Amateur Radio Satellites - All Passes

Search period start: 01 August 2014 03:18
Search period end: 02 August 2014 03:18
Location: Camp Crooked Creek, 37.9149°N, 85.6607°W

Satellite Date Start Highest point End Downlink Frequencies (MHz)
Time Altitude Azimuth
Oscar 16 01 Aug 03:25:05 03:30:17 88° 284° (WNW) 03:35:28 437.025 USB, Beacon 2401.1428
ITAMSAT 1 01 Aug 03:52:49 03:58:00 73° 103° (ESE) 04:03:08 435.822 SSB
Uribyol 2 01 Aug 04:11:27 04:16:36 70° 286° (WNW) 04:21:43 436.500 FM
AO-27 01 Aug 04:12:58 04:18:08 71° 286° (WNW) 04:23:15 436.795 MHz FM
JAS-1B 01 Aug 04:25:11 04:34:23 81° 103° (ESE) 04:42:03 435.800 - 435.900 CW/SSB
AO-Echo 01 Aug 04:26:07 04:30:55 48° 288° (WNW) 04:35:33 ?
TMSAT-1 01 Aug 04:27:29 04:32:35 46° 99° (E) 04:37:38 436.925 FM
ISS 01 Aug 04:32:56 04:35:04 16° 23° (NNE) 04:37:11 145.800 FM
PANSAT 01 Aug 04:34:19 04:36:49 16° 170° (S) 04:39:18 not established
Oscar 19 01 Aug 04:36:30 04:40:13 20° 295° (WNW) 04:43:57 437.125 CW, 437.150 USB
Uosat F 01 Aug 04:48:57 04:51:34 14° 92° (E) 04:54:11 435.120 FM
Gurwin Techsat 1B 01 Aug 04:53:57 04:59:15 72° 286° (WNW) 05:04:31 435.225 FM
OPAL 01 Aug 04:54:12 04:59:08 85° 74° (ENE) 05:04:07 ?
Oscar 16 01 Aug 05:08:03 05:08:50 10° 300° (WNW) 05:09:37 437.025 USB, Beacon 2401.1428
AO-7 01 Aug 05:32:18 05:40:06 43° 100° (E) 05:47:50 29.400 - 29.500 MHz
ITAMSAT 1 01 Aug 05:34:26 05:36:50 13° 299° (WNW) 05:39:14 435.822 SSB
TMSAT-1 01 Aug 06:08:16 06:12:08 21° 295° (WNW) 06:16:00 436.925 FM
ISS 01 Aug 06:08:49 06:12:11 88° 33° (NNE) 06:15:33 145.800 FM
KITSAT 1 01 Aug 06:12:16 06:20:09 59° 113° (ESE) 06:28:04 435.175 FM
PANSAT 01 Aug 06:13:33 06:16:25 20° 182° (S) 06:19:17 not established
JAS-1B 01 Aug 06:16:59 06:23:38 23° 305° (NW) 06:29:40 435.800 - 435.900 CW/SSB
MaSat-1 01 Aug 06:18:39 06:23:13 29° 56° (NE) 06:27:32 437.345 MHz
Uosat F 01 Aug 06:25:47 06:30:43 58° 287° (WNW) 06:35:36 435.120 FM
Hamsat 01 Aug 06:37:04 06:39:16 14° 92° (E) 06:41:28 145.90 MHz
Saudisat 1A 01 Aug 07:02:48 07:06:43 32° 114° (ESE) 07:10:40 436.775 MHz
STRAND 1 01 Aug 07:22:52 07:27:53 57° 73° (ENE) 07:32:55 ?
AO-7 01 Aug 07:25:11 07:32:47 41° 297° (WNW) 07:40:20 29.400 - 29.500 MHz
JAS-2 01 Aug 07:48:18 07:53:57 60° 100° (E) 07:59:08 435.800 - 435.900 CW/SSB, 435.910 FM
SO-67 01 Aug 07:53:30 07:54:49 12° 92° (E) 07:56:07 435.3500 MHz FM
PANSAT 01 Aug 07:54:09 07:55:59 13° 195° (SSW) 07:57:48 not established
MaSat-1 01 Aug 07:55:51 08:00:33 35° 254° (WSW) 08:04:55 437.345 MHz
KITSAT 1 01 Aug 08:08:50 08:15:57 33° 312° (NW) 08:23:06 435.175 FM
Hamsat 01 Aug 08:11:18 08:15:26 46° 286° (WNW) 08:19:36 145.90 MHz
PCSat 01 Aug 08:36:14 08:38:31 13° 43° (NE) 08:40:47 145.825 MHz
Saudisat 1A 01 Aug 08:42:38 08:46:19 25° 310° (NW) 08:50:01 436.775 MHz
STRAND 1 01 Aug 09:04:28 09:07:24 15° 268° (W) 09:10:21 ?
SO-67 01 Aug 09:24:51 09:27:59 32° 287° (WNW) 09:31:07 435.3500 MHz FM
JAS-2 01 Aug 09:34:56 09:38:23 17° 300° (WNW) 09:41:40 435.800 - 435.900 CW/SSB, 435.910 FM
Sapphire 01 Aug 09:44:34 09:49:38 38° 56° (NE) 09:54:39 437.095 MHz 1200 baud AX-25 AFSK
HO-68 01 Aug 10:06:22 10:12:48 35° 98° (E) 10:19:11 435.675 MHz FM
PCSat 01 Aug 10:17:23 10:22:50 78° 62° (ENE) 10:28:15 145.825 MHz
UKube-1 01 Aug 10:42:03 10:46:12 42° 99° (E) 10:50:19 145.840 MHz, 145.915 MHz
Oscar 11 01 Aug 11:23:07 11:27:27 68° 101° (E) 11:31:46 145.825 FM, Beacon 2401.500 USB
Sapphire 01 Aug 11:28:20 11:32:51 28° 252° (WSW) 11:37:21 437.095 MHz 1200 baud AX-25 AFSK
HO-68 01 Aug 11:53:55 12:00:29 42° 294° (WNW) 12:07:03 435.675 MHz FM
FUNcube-1 01 Aug 11:54:42 11:58:49 54° 100° (E) 12:02:59 145.950 - 145.970 MHz USB
PCSat 01 Aug 12:03:23 12:05:30 12° 258° (WSW) 12:07:38 145.825 MHz
UKube-1 01 Aug 12:19:23 12:22:02 16° 295° (WNW) 12:24:41 145.840 MHz, 145.915 MHz
SO-50 01 Aug 12:30:46 12:35:12 76° 119° (ESE) 12:39:44 436.795 FM
Oscar 11 01 Aug 13:02:16 13:03:02 10° 297° (WNW) 13:03:49 145.825 FM, Beacon 2401.500 USB
Oscar 16 01 Aug 13:04:30 13:06:47 13° 62° (ENE) 13:09:04 437.025 USB, Beacon 2401.1428
JAS-1B 01 Aug 13:20:24 13:25:04 15° 49° (NE) 13:29:50 435.800 - 435.900 CW/SSB
RS-15 01 Aug 13:21:08 13:31:56 57° 112° (ESE) 13:42:28 29.354 - 29.394 USB, Beacon 29.352 USB
FUNcube-1 01 Aug 13:33:08 13:34:46 12° 295° (WNW) 13:36:24 145.950 - 145.970 MHz USB
ITAMSAT 1 01 Aug 13:34:13 13:35:33 11° 60° (ENE) 13:36:53 435.822 SSB
Uribyol 2 01 Aug 13:50:28 13:53:47 17° 64° (ENE) 13:57:05 436.500 FM
AO-27 01 Aug 13:52:11 13:55:31 18° 63° (ENE) 13:58:52 436.795 MHz FM
AO-Echo 01 Aug 13:59:30 14:03:24 21° 65° (ENE) 14:07:18 ?
KITSAT 1 01 Aug 14:07:59 14:14:12 23° 42° (NE) 14:20:22 435.175 FM
UOSAT-12 01 Aug 14:10:50 14:15:18 56° 117° (ESE) 14:19:53 437.025 FM, 437.400 FM
Oscar 19 01 Aug 14:11:26 14:16:25 56° 73° (ENE) 14:21:25 437.125 CW, 437.150 USB
SO-50 01 Aug 14:13:58 14:16:19 14° 318° (NW) 14:18:41 436.795 FM
Gurwin Techsat 1B 01 Aug 14:35:35 14:39:07 18° 64° (ENE) 14:42:39 435.225 FM
Oscar 16 01 Aug 14:40:22 14:45:28 73° 258° (WSW) 14:50:37 437.025 USB, Beacon 2401.1428
JAS-1B 01 Aug 15:04:35 15:13:26 61° 69° (ENE) 15:23:07 435.800 - 435.900 CW/SSB
ITAMSAT 1 01 Aug 15:09:02 15:14:15 89° 256° (WSW) 15:19:30 435.822 SSB
Uribyol 2 01 Aug 15:27:41 15:32:47 55° 259° (W) 15:37:53 436.500 FM
AO-27 01 Aug 15:29:27 15:34:33 56° 259° (W) 15:39:42 436.795 MHz FM
Saudisat 1A 01 Aug 15:31:30 15:34:36 18° 47° (NE) 15:37:41 436.775 MHz
RS-15 01 Aug 15:34:18 15:44:35 42° 314° (NW) 15:54:49 29.354 - 29.394 USB, Beacon 29.352 USB
AO-Echo 01 Aug 15:36:41 15:41:47 47° 261° (W) 15:46:55 ?
TMSAT-1 01 Aug 15:46:27 15:51:40 61° 73° (ENE) 15:56:53 436.925 FM
UOSAT-12 01 Aug 15:52:36 15:55:48 18° 315° (NW) 15:59:04 437.025 FM, 437.400 FM
Oscar 19 01 Aug 15:53:07 15:56:05 15° 268° (W) 15:59:04 437.125 CW, 437.150 USB
Uosat F 01 Aug 16:00:31 16:03:51 18° 64° (ENE) 16:07:11 435.120 FM
KITSAT 1 01 Aug 16:02:30 16:10:37 87° 243° (WSW) 16:18:40 435.175 FM
Gurwin Techsat 1B 01 Aug 16:13:26 16:18:37 54° 260° (W) 16:23:50 435.225 FM
AO-7 01 Aug 16:29:08 16:37:05 50° 65° (ENE) 16:45:02 29.400 - 29.500 MHz
JAS-1B 01 Aug 16:56:27 17:04:16 33° 268° (W) 17:12:51 435.800 - 435.900 CW/SSB
OPAL 01 Aug 17:06:14 17:10:28 26° 98° (E) 17:14:42 ?
Saudisat 1A 01 Aug 17:10:11 17:14:26 49° 244° (WSW) 17:18:39 436.775 MHz
TMSAT-1 01 Aug 17:29:00 17:31:57 15° 269° (W) 17:34:55 436.925 FM
Uosat F 01 Aug 17:37:19 17:42:13 51° 260° (W) 17:47:08 435.120 FM
RS-15 01 Aug 17:54:44 18:01:07 17° 346° (NNW) 18:07:32 29.354 - 29.394 USB, Beacon 29.352 USB
JAS-2 01 Aug 17:57:26 18:03:39 28° 65° (ENE) 18:09:28 435.800 - 435.900 CW/SSB, 435.910 FM
KITSAT 1 01 Aug 18:00:36 18:04:49 15° 260° (W) 18:09:02 435.175 FM
AO-7 01 Aug 18:22:36 18:29:59 35° 262° (W) 18:37:27 29.400 - 29.500 MHz
OPAL 01 Aug 18:44:44 18:49:21 35° 293° (WNW) 18:53:59 ?
Hamsat 01 Aug 19:02:37 19:06:47 83° 258° (WSW) 19:11:01 145.90 MHz
STRAND 1 01 Aug 19:36:05 19:39:59 22° 95° (E) 19:43:53 ?
JAS-2 01 Aug 19:40:35 19:48:14 59° 259° (W) 19:55:23 435.800 - 435.900 CW/SSB, 435.910 FM
SO-67 01 Aug 19:55:50 19:59:13 54° 76° (ENE) 20:02:37 435.3500 MHz FM
MaSat-1 01 Aug 20:09:48 20:11:50 13° 98° (E) 20:13:59 437.345 MHz
RS-15 01 Aug 20:12:06 20:19:41 20° 24° (NNE) 20:27:22 29.354 - 29.394 USB, Beacon 29.352 USB
HO-68 01 Aug 20:34:14 20:39:35 23° 60° (ENE) 20:44:55 435.675 MHz FM
SO-50 01 Aug 21:04:00 21:08:33 43° 54° (NE) 21:13:08 436.795 FM
STRAND 1 01 Aug 21:14:34 21:19:17 39° 290° (WNW) 21:23:59 ?
UKube-1 01 Aug 21:36:06 21:39:55 30° 70° (ENE) 21:43:45 145.840 MHz, 145.915 MHz
MaSat-1 01 Aug 21:44:24 21:48:25 50° 299° (WNW) 21:53:04 437.345 MHz
Oscar 11 01 Aug 22:16:30 22:20:32 41° 73° (ENE) 22:24:36 145.825 FM, Beacon 2401.500 USB
HO-68 01 Aug 22:19:33 22:26:39 66° 257° (WSW) 22:33:48 435.675 MHz FM
RS-15 01 Aug 22:24:12 22:35:05 59° 53° (NE) 22:46:20 29.354 - 29.394 USB, Beacon 29.352 USB
UOSAT-12 01 Aug 22:42:18 22:46:32 31° 51° (NE) 22:50:42 437.025 FM, 437.400 FM
SO-50 01 Aug 22:45:16 22:48:50 21° 249° (WSW) 22:52:25 436.795 FM
ISS 01 Aug 22:49:41 22:53:00 78° 139° (SE) 22:56:21 145.800 FM
FUNcube-1 01 Aug 22:49:44 22:53:37 34° 72° (ENE) 22:57:26 145.950 - 145.970 MHz USB
UKube-1 01 Aug 23:12:47 23:16:08 21° 265° (W) 23:19:29 145.840 MHz, 145.915 MHz
PCSat 01 Aug 23:17:56 23:19:54 12° 102° (ESE) 23:21:51 145.825 MHz
Oscar 11 01 Aug 23:54:26 23:56:54 15° 267° (W) 23:59:23 145.825 FM, Beacon 2401.500 USB
UOSAT-12 02 Aug 00:22:33 00:26:35 28° 248° (WSW) 00:30:33 437.025 FM, 437.400 FM
Sapphire 02 Aug 00:24:28 00:29:38 49° 112° (ESE) 00:34:50 437.095 MHz 1200 baud AX-25 AFSK
FUNcube-1 02 Aug 00:27:13 00:30:05 17° 266° (W) 00:32:56 145.950 - 145.970 MHz USB
ISS 02 Aug 00:27:49 00:30:04 17° 336° (NNW) 00:32:20 145.800 FM
RS-15 02 Aug 00:37:07 00:46:58 39° 253° (WSW) 00:57:12 29.354 - 29.394 USB, Beacon 29.352 USB
PCSat 02 Aug 00:57:09 01:02:33 79° 298° (WNW) 01:08:00 145.825 MHz
Sapphire 02 Aug 02:09:02 02:13:18 23° 310° (NW) 02:17:36 437.095 MHz 1200 baud AX-25 AFSK
Oscar 19 02 Aug 02:25:28 02:29:31 23° 95° (E) 02:33:34 437.125 CW, 437.150 USB
PCSat 02 Aug 02:44:30 02:46:51 13° 317° (NW) 02:49:13 145.825 MHz
Oscar 16 02 Aug 02:53:56 02:58:54 46° 99° (E) 03:03:51 437.025 USB, Beacon 2401.1428
JAS-1B 02 Aug 02:55:46 03:01:46 20° 86° (E) 03:07:08 435.800 - 435.900 CW/SSB
